Location: Lafig�re
(44.4503°N, 4.0357°E)
Time: 15:11:49
(UTC+00:00)

S-56A Canister/Altair - Pass Details

Date: 29 January 2021
Orbit: 631 x 2501 km, 38.9° (Epoch: 01 March)

Event Time Altitude Azimuth Distance (km) Brightness Sun altitude
Rises 00:18:46 0° 229° (SW) 3,638 - -63.1°
Reaches altitude 10° 00:22:01 10° 218° (SW) 2,447 - -63.0°
Maximum altitude 00:26:32 27° 162° (SSE) 1,359 - -62.8°
Drops below altitude 10° 00:30:22 10° 104° (ESE) 2,041 - -62.6°
Sets 00:32:49 0° 91° (E) 2,916 - -62.4°
